Lid_Strength_Index
9 11 13 12 11 11 12 14 14 13 10 12 12 11 10 9 9 9 9 8 8 7 5 5 4 4 5 5 3 1 1 1 1 2 2 2 2 2 2 1 1 2 2 2
11 13 10 9 10 11 12 13 13 12 10 11 12 12 10 10 9 9 8 8 7 7 7 6 6 5 5 5 5 3 1 1 1 1 1 1 1 1 1 1 1 1 2 2
12 12 9 10 11 13 13 14 14 14 12 11 12 13 12 10 10 9 8 7 7 8 8 7 7 6 6 6 5 5 3 1 1 1 1 1 1 2 3 2 2 2 1 2
11 10 10 11 12 11 15 11 12 13 14 17 13 18 15 13 11 11 9 9 9 9 8 8 8 7 7 6 6 6 5 2 1 1 1 2 2 3 2 1 2 2 2 1
13 12 11 13 12 10 13 10 11 13 14 15 16 17 17 14 14 11 9 9 10 9 9 9 9 8 7 6 6 6 6 4 2 1 1 2 2 2 1 1 2 2 2 2
12 11 10 11 9 9 9 11 12 12 14 19 15 16 17 16 13 12 10 10 9 9 9 9 9 8 8 8 6 6 6 5 2 1 2 2 2 2 2 2 2 2 2 2
13 13 11 10 12 10 11 13 19 20 20 20 16 16 15 14 11 10 10 9 9 9 9 9 9 9 9 9 8 8 7 6 5 2 2 2 2 2 2 2 2 2 2 2
15 17 12 10 11 13 13 13 18 22 21 18 15 18 16 12 10 9 8 9 10 9 9 9 9 9 10 10 9 10 9 10 9 8 7 5 2 1 1 2 2 2 2 2
15 15 11 10 10 9 13 15 11 16 19 19 17 16 14 12 11 10 11 10 11 10 10 10 10 10 11 11 10 10 9 10 10 10 9 9 7 5 2 1 1 1 1 1
12 16 12 10 9 9 11 10 16 15 21 22 18 18 17 14 12 12 11 10 9 10 10 10 10 11 11 11 12 11 11 10 11 11 10 10 8 7 6 4 1 1 1 1
11 13 14 11 13 13 12 14 13 13 16 21 21 18 13 12 11 11 10 9 9 11 11 11 11 11 12 12 12 12 12 11 11 12 11 10 9 8 7 7 7 6 5 1
10 12 15 14 12 10 10 12 12 17 18 16 17 16 11 11 11 10 9 10 11 12 12 13 13 12 12 12 13 13 13 13 12 13 12 11 10 10 9 10 9 8 7 6
9 13 18 16 14 13 13 11 11 12 13 16 18 16 11 11 11 10 11 12 12 13 13 14 13 13 13 13 13 14 13 14 13 14 13 12 12 11 12 12 11 10 10 9
8 12 14 16 15 13 14 13 12 13 16 15 15 13 12 11 11 11 12 13 13 14 14 14 14 14 14 14 14 15 14 14 13 14 14 13 14 13 13 13 12 12 12 11
9 15 13 12 13 13 12 12 12 14 13 15 13 13 11 10 11 12 13 13 14 14 15 15 15 15 15 15 15 15 15 15 15 15 14 15 13 14 15 14 13 13 13 12
9 14 12 14 12 13 14 13 12 12 12 12 12 13 11 13 14 15 15 15 15 15 16 16 16 16 16 16 16 15 16 16 15 15 16 14 15 16 16 15 15 15 14 13
11 13 14 17 13 13 16 13 13 12 11 11 14 11 12 14 14 15 16 16 16 17 17 17 17 17 17 17 16 17 17 16 16 17 16 16 17 16 16 15 15 16 15 14
12 13 13 16 15 20 13 13 11 12 11 10 10 13 12 13 14 16 16 17 17 17 18 18 17 18 18 17 17 17 17 17 17 17 18 18 18 18 17 16 16 16 15 14
9 12 15 17 17 15 14 15 14 14 13 11 10 15 15 16 16 18 17 17 18 18 18 18 18 18 18 18 18 18 18 18 18 19 19 18 18 18 18 18 17 16 16 14
10 10 14 18 18 20 13 14 13 12 15 14 13 14 16 15 17 17 19 18 18 18 18 18 18 19 19 19 19 19 19 19 20 19 19 19 18 18 19 18 18 16 16 15
14 13 16 16 17 15 14 13 13 18 16 16 15 16 16 16 18 19 19 19 18 19 19 19 20 20 19 19 19 19 19 20 20 20 19 19 19 19 18 18 17 16 16 14
14 15 16 15 17 18 14 14 14 14 16 16 17 18 18 19 19 20 20 20 20 20 20 20 21 20 20 20 20 20 21 20 20 21 21 21 20 19 18 19 17 16 16 15
15 12 14 13 13 17 18 17 17 16 17 19 19 20 20 20 21 21 21 20 20 21 20 20 21 21 21 21 21 22 22 21 22 23 23 21 20 19 18 18 17 18 17 16
13 13 14 14 16 18 19 19 19 18 18 19 19 21 21 22 21 20 20 20 21 21 22 22 22 23 23 23 22 23 23 23 24 24 23 21 20 20 19 18 17 18 18 18
13 13 16 17 19 19 19 18 19 20 20 21 21 21 22 21 21 21 22 22 22 22 22 23 23 24 24 24 24 24 24 24 25 24 23 22 21 21 20 19 19 18 17 16
15 15 15 15 17 15 17 18 19 20 21 21 22 23 22 21 22 22 23 23 23 24 24 25 25 25 26 26 26 26 26 26 26 26 24 23 22 21 20 20 20 16 14 14